TimeMST,TemperatureF,Dew PointF,Humidity,Sea Level PressureIn,VisibilityMPH,Wind Direction,Wind SpeedMPH,Gust SpeedMPH,PrecipitationIn,Events,Conditions,WindDirDegrees,DateUTC
1:50 AM,67,56,61,30.00,2,NNE,6.7,,,,Mostly Cloudy,30,2014-01-06 08:50:00
4:50 AM,67,54,53,30.01,2,NE,6.7,,,,Mostly Cloudy,50,2014-01-06 11:50:00
5:55 AM,64.4,51.8,64,30.03,8.0,NE,5.8,-,N/A,,Scattered Clouds,40,2014-01-06 12:55:00
7:46 AM,64.4,50.0,59,30.20,10.0,NNE,6.9,-,N/A,,Partly Cloudy,30,2014-01-06 14:46:00
7:50 AM,67,52,47,30.06,12,NE,6.7,,,,,50,2014-01-06 14:50:00
8:47 AM,69.8,46.4,43,30.09,10.0,NE,15.0,-,N/A,,Partly Cloudy,50,2014-01-06 15:47:00
9:40 AM,71.6,41.0,33,30.11,10.0,North,9.2,-,N/A,,Partly Cloudy,10,2014-01-06 16:40:00
10:40 AM,76,47,26,30.14,19,North,4.5,,,,,0,2014-01-06 17:40:00
10:40 AM,71.6,41.0,33,30.22,10.0,NNW,5.8,-,N/A,,Clear,330,2014-01-06 17:40:00
12:40 PM,73.4,42.8,33,30.04,10.0,North,6.9,-,N/A,,Clear,350,2014-01-06 19:40:00
1:40 PM,80,50,24,30.05,19,North,8.9,,,,,0,2014-01-06 20:40:00
1:46 PM,73.4,48.2,41,30.15,10.0,North,15.0,-,N/A,,Clear,350,2014-01-06 20:46:00
2:40 PM,73.4,42.8,33,30.01,10.0,North,12.7,-,N/A,,Clear,360,2014-01-06 21:40:00
3:40 PM,73.4,44.6,36,30.01,10.0,North,10.4,-,N/A,,Clear,360,2014-01-06 22:40:00
4:40 PM,71.6,46.4,41,30.15,10.0,North,9.2,-,N/A,,Clear,350,2014-01-06 23:40:00
4:50 PM,74,45,25,30.01,19,NE,6.7,,,,,50,2014-01-06 23:50:00
5:40 PM,69.8,46.4,43,30.02,10.0,North,6.9,-,N/A,,Clear,360,2014-01-07 00:40:00
6:40 PM,68.0,50.0,52,30.02,10.0,NE,8.1,-,N/A,,Clear,50,2014-01-07 01:40:00
7:40 PM,66.2,50.0,56,30.17,10.0,NE,9.2,-,N/A,,Clear,50,2014-01-07 02:40:00
7:50 PM,85,53,23,30.04,2,NW,6.7,,,,,320,2014-01-07 02:50:00
8:40 PM,64.4,50.0,59,30.06,10.0,ENE,4.6,-,N/A,,Clear,60,2014-01-07 03:40:00
9:40 PM,64.4,50.0,59,30.06,10.0,ENE,5.8,-,N/A,,Clear,60,2014-01-07 04:40:00
10:40 PM,60.8,48.2,63,30.20,10.0,NE,4.6,-,N/A,,Clear,40,2014-01-07 05:40:00
10:50 PM,67,51,45,30.04,2,NE,4.5,,,,,50,2014-01-07 05:50:00